Menomonie, WI

6:44 PM CDT on August 17, 2017 (GMT -0500)
Menomonie

Weather History for KLUM - January, 2014

Change the Weather History Date:

Tuesday, January 7, 2014

  Actual Average (KEAU) Record (KEAU)
Temperature  
Mean Temperature -8 °F -  
Max Temperature 2 °F 15 °F 49 °F (2003)
Min Temperature -17 °F -2 °F -33 °F (1912)
Degree Days  
Heating Degree Days 72    
Moisture  
Dew Point -17 °F    
Average Humidity 63    
Maximum Humidity 76    
Minimum Humidity 48    
Precipitation  
Precipitation 0.00 in - - ()
Sea Level Pressure  
Sea Level Pressure 30.15 in    
Wind  
Wind Speed 6 mph (WSW)    
Max Wind Speed 12 mph    
Max Gust Speed -    
Visibility 10 miles    
Events      
Averages and records for this station are not official NWS values.
T = Trace of Precipitation, MM = Missing Value Source: NWS Daily Summary

Daily Weather History Graph

Daily Weather History Graph

Search for Another Location

Airport or City:

Trip Planner

Search our weather history database for the weather conditions in past years. The results will help you decide how hot, cold, wet, or windy it might be!

Date:

Astronomy

Jan. 07, 2014 Rise Set
Actual Time 7:44 AM CST 4:43 PM CST
Civil Twilight 7:11 AM CST 5:16 PM CST
Nautical Twilight 6:34 AM CST 5:53 PM CST
Astronomical Twilight 5:59 AM CST 6:28 PM CST
Moon 11:14 AM CST (1/7) No Moon Set
Length of Visible Light 10h 04m
Length of Day
8h 58m
Waxing Crescent, 46% of the Moon is Illuminated
Jan 7
Waxing Crescent
Jan 7
First Quarter
Jan 15
Full
Jan 23
Last Quarter
Jan 30
New

Hourly Weather History & Observations

Time (CST) Temp. Windchill Dew Point Humidity Pressure Visibility Wind Dir Wind Speed Gust Speed Precip Events Conditions
12:15 AM -16.8 °F -35.9 °F -26.3 °F 62% 30.12 in 10.0 mi West 9.2 mph - N/A   Clear
12:35 AM -16.6 °F -37.9 °F -25.8 °F 63% 30.13 in 10.0 mi West 11.5 mph - N/A   Clear
12:55 AM -16.6 °F -36.8 °F -25.6 °F 64% 30.13 in 10.0 mi West 10.4 mph - N/A   Clear
1:15 AM -16.8 °F -33.2 °F -25.6 °F 64% 30.13 in 10.0 mi West 6.9 mph - N/A   Clear
1:35 AM -16.8 °F -34.6 °F -25.6 °F 64% 30.13 in 10.0 mi WSW 8.1 mph - N/A   Clear
1:55 AM -16.8 °F -33.2 °F -25.6 °F 64% 30.14 in 10.0 mi WSW 6.9 mph - N/A   Clear
2:15 AM -16.8 °F -33.2 °F -25.4 °F 65% 30.14 in 10.0 mi WSW 6.9 mph - N/A   Clear
2:35 AM -16.8 °F -27.0 °F -24.9 °F 67% 30.14 in 10.0 mi West 3.5 mph - N/A   Clear
2:55 AM -17.1 °F -29.9 °F -25.1 °F 67% 30.13 in 10.0 mi WSW 4.6 mph - N/A   Clear
3:15 AM -16.8 °F -31.5 °F -24.7 °F 67% 30.13 in 10.0 mi WSW 5.8 mph - N/A   Scattered Clouds
3:35 AM -16.6 °F -31.3 °F -24.2 °F 69% 30.12 in 10.0 mi WSW 5.8 mph - N/A   Scattered Clouds
3:55 AM -16.1 °F -26.2 °F -23.3 °F 70% 30.13 in 5.0 mi WSW 3.5 mph - N/A   Haze
4:15 AM -16.2 °F -26.4 °F -23.3 °F 71% 30.12 in 7.0 mi WSW 3.5 mph - N/A   Mostly Cloudy
4:35 AM -16.8 °F -29.5 °F -23.8 °F 70% 30.11 in 10.0 mi SW 4.6 mph - N/A   Mostly Cloudy
4:55 AM -16.8 °F -29.5 °F -24.0 °F 70% 30.12 in 10.0 mi SW 4.6 mph - N/A   Overcast
5:15 AM -16.1 °F -28.6 °F -23.3 °F 70% 30.12 in 10.0 mi SW 4.6 mph - N/A   Overcast
5:35 AM -16.6 °F -29.3 °F -23.8 °F 70% 30.12 in 10.0 mi SW 4.6 mph - N/A   Overcast
5:55 AM -16.1 °F -30.6 °F -22.9 °F 71% 30.12 in 10.0 mi SW 5.8 mph - N/A   Overcast
6:15 AM -15.9 °F -30.4 °F -22.2 °F 73% 30.12 in 7.0 mi WSW 5.8 mph - N/A   Scattered Clouds
6:35 AM -15.9 °F -28.4 °F -22.2 °F 73% 30.12 in 10.0 mi WSW 4.6 mph - N/A   Clear
6:55 AM -15.3 °F -31.4 °F -22.0 °F 72% 30.11 in 10.0 mi WSW 6.9 mph - N/A   Clear
7:15 AM -15.2 °F -31.2 °F -21.8 °F 72% 30.11 in 10.0 mi WSW 6.9 mph - N/A   Clear
7:35 AM -15.0 °F -29.3 °F -21.6 °F 72% 30.11 in 10.0 mi WSW 5.8 mph - N/A   Clear
7:55 AM -15.0 °F -31.0 °F -21.5 °F 73% 30.13 in 10.0 mi WSW 6.9 mph - N/A   Clear
8:15 AM -14.3 °F -28.5 °F -20.6 °F 73% 30.13 in 10.0 mi WSW 5.8 mph - N/A   Clear
8:35 AM -13.5 °F -27.6 °F -20.6 °F 71% 30.14 in 10.0 mi SW 5.8 mph - N/A   Clear
8:55 AM -12.8 °F -28.4 °F -20.0 °F 70% 30.15 in 10.0 mi WSW 6.9 mph - N/A   Clear
9:15 AM -11.6 °F -23.4 °F -19.7 °F 67% 30.15 in 10.0 mi WSW 4.6 mph - N/A   Clear
9:35 AM -10.5 °F -25.6 °F -18.9 °F 66% 30.16 in 10.0 mi WSW 6.9 mph - N/A   Clear
9:55 AM -9.4 °F -22.7 °F -18.4 °F 65% 30.16 in 10.0 mi WSW 5.8 mph - N/A   Clear
10:15 AM -8.5 °F -17.6 °F -18.0 °F 63% 30.17 in 10.0 mi West 3.5 mph - N/A   Clear
10:35 AM -6.9 °F -22.5 °F -17.3 °F 61% 30.17 in 10.0 mi WSW 8.1 mph - N/A   Clear
10:55 AM -5.8 °F -18.4 °F -16.6 °F 60% 30.17 in 10.0 mi West 5.8 mph - N/A   Clear
11:15 AM -4.9 °F -18.8 °F -16.2 °F 58% 30.16 in 10.0 mi WSW 6.9 mph - N/A   Clear
11:35 AM -4.0 °F -19.0 °F -15.7 °F 57% 30.16 in 10.0 mi WSW 8.1 mph - N/A   Clear
11:55 AM -2.7 °F -16.2 °F -15.0 °F 56% 30.15 in 10.0 mi WSW 6.9 mph - N/A   Clear
12:15 PM -2.0 °F -13.9 °F -14.8 °F 55% 30.14 in 10.0 mi West 5.8 mph - N/A   Clear
12:35 PM -1.3 °F -13.1 °F -14.4 °F 54% 30.13 in 10.0 mi WSW 5.8 mph - N/A   Clear
12:55 PM -0.6 °F -12.2 °F -14.3 °F 53% 30.12 in 10.0 mi WSW 5.8 mph - N/A   Clear
1:15 PM -0.0 °F -7.9 °F -14.1 °F 52% 30.11 in 10.0 mi West 3.5 mph - N/A   Clear
1:35 PM 0.5 °F -11.0 °F -13.9 °F 51% 30.11 in 10.0 mi West 5.8 mph - N/A   Clear
1:55 PM 1.2 °F -8.5 °F -13.9 °F 49% 30.12 in 10.0 mi West 4.6 mph - N/A   Clear
2:15 PM 1.6 °F -8.0 °F -13.5 °F 49% 30.12 in 10.0 mi West 4.6 mph - N/A   Clear
2:35 PM 1.8 °F -7.8 °F -13.7 °F 48% 30.12 in 10.0 mi West 4.6 mph - N/A   Clear
2:55 PM 1.8 °F -5.8 °F -13.4 °F 49% 30.13 in 10.0 mi WNW 3.5 mph - N/A   Clear
3:15 PM 1.9 °F -9.2 °F -13.0 °F 50% 30.14 in 10.0 mi West 5.8 mph - N/A   Clear
3:35 PM 2.1 °F -7.4 °F -12.6 °F 50% 30.14 in 10.0 mi West 4.6 mph - N/A   Clear
3:55 PM 1.4 °F -12.5 °F -13.0 °F 51% 30.14 in 10.0 mi WNW 8.1 mph - N/A   Clear
4:15 PM 1.0 °F -8.7 °F -12.1 °F 54% 30.14 in 10.0 mi WNW 4.6 mph - N/A   Clear
4:35 PM 1.2 °F -6.4 °F -12.1 °F 54% 30.15 in 10.0 mi WSW 3.5 mph - N/A   Clear
4:55 PM 0.9 °F -6.9 °F -11.7 °F 56% 30.15 in 10.0 mi WSW 3.5 mph - N/A   Clear
5:15 PM 0.5 °F -7.3 °F -11.7 °F 56% 30.15 in 10.0 mi West 3.5 mph - N/A   Clear
5:35 PM 0.9 °F -6.9 °F -11.9 °F 55% 30.16 in 10.0 mi WSW 3.5 mph - N/A   Clear
5:55 PM 0.5 °F -7.3 °F -11.2 °F 58% 30.16 in 10.0 mi WSW 3.5 mph - N/A   Clear
6:15 PM 0.5 °F - -11.2 °F 58% 30.17 in 10.0 mi Calm Calm - N/A   Clear
6:35 PM 0.5 °F -7.3 °F -10.7 °F 59% 30.17 in 10.0 mi West 3.5 mph - N/A   Clear
6:55 PM 0.3 °F -7.5 °F -10.5 °F 60% 30.18 in 10.0 mi NW 3.5 mph - N/A   Clear
7:15 PM 0.3 °F - -11.0 °F 59% 30.18 in 10.0 mi Calm Calm - N/A   Clear
7:35 PM -0.4 °F -8.3 °F -11.2 °F 60% 30.18 in 10.0 mi West 3.5 mph - N/A   Clear
7:55 PM -0.6 °F -8.5 °F -11.9 °F 59% 30.19 in 10.0 mi West 3.5 mph - N/A   Clear
8:15 PM -1.1 °F -9.1 °F -11.4 °F 62% 30.20 in 10.0 mi West 3.5 mph - N/A   Clear
8:35 PM -1.3 °F -9.3 °F -11.4 °F 62% 30.20 in 10.0 mi WSW 3.5 mph - N/A   Clear
8:55 PM -2.2 °F -10.4 °F -11.6 °F 64% 30.21 in 10.0 mi WSW 3.5 mph - N/A   Clear
9:15 PM -2.4 °F -10.6 °F -12.1 °F 63% 30.21 in 10.0 mi WSW 3.5 mph - N/A   Clear
9:35 PM -2.7 °F - -11.7 °F 65% 30.22 in 10.0 mi Calm Calm - N/A   Clear
9:55 PM -4.9 °F - -12.6 °F 69% 30.22 in 10.0 mi Calm Calm - N/A   Clear
10:15 PM -4.0 °F -12.4 °F -12.3 °F 68% 30.23 in 10.0 mi WSW 3.5 mph - N/A   Clear
10:35 PM -6.2 °F -14.9 °F -13.7 °F 70% 30.23 in 10.0 mi SW 3.5 mph - N/A   Clear
10:55 PM -7.8 °F - -14.8 °F 71% 30.23 in 10.0 mi Calm Calm - N/A   Clear
11:15 PM -7.6 °F - -13.9 °F 74% 30.23 in 10.0 mi Calm Calm - N/A   Clear
11:35 PM -8.0 °F - -13.7 °F 76% 30.23 in 10.0 mi Calm Calm - N/A   Mostly Cloudy
11:55 PM -9.8 °F - -15.9 °F 74% 30.23 in 10.0 mi Calm Calm - N/A   Overcast